[TLELIST] Archives

 

[TLELIST] Current TLEs

April 18th 2024 PDT

HST 1 20580U 90037B 24108.87054358 .00011457 00000-0 55801-3 0 9999 2 20580 28.4696 28.9793 0002655 93.6300 266.4596 15.16772606667861 ISS (ZARYA) 1 25544U 98067A 24109.41781315 .00027290 00000-0 47792-3 0 9998 2 25544 51.6383 251.7688 0005046 73.5951 24.7412 15.50379259449272 CXO 1 25867U 99040B 24109.68742308 .00000930 00000-0 00000+0 0 9995 2 25867 39.8987 159.5880 8946259 292.2469 359.9679 0.37811468 25493 ...Continue Reading

[TLELIST] Current TLEs

April 17th 2024 PDT

HST 1 20580U 90037B 24108.14675951 .00012782 00000-0 62380-3 0 9999 2 20580 28.4697 33.8214 0002605 86.3698 273.7193 15.16756159668016 ISS (ZARYA) 1 25544U 98067A 24108.06679608 .00019473 00000-0 34469-3 0 9990 2 25544 51.6384 258.4693 0004986 70.1481 42.8477 15.50291806449066 CXO 1 25867U 99040B 24109.68742308 .00000930 00000-0 00000+0 0 9995 2 25867 39.8987 159.5880 8946259 292.2469 359.9679 0.37811468 25493 ...Continue Reading

[TLELIST] Current TLEs

April 17th 2024 PDT

HST 1 20580U 90037B 24108.14675951 .00012782 00000-0 62380-3 0 9999 2 20580 28.4697 33.8214 0002605 86.3698 273.7193 15.16756159668016 ISS (ZARYA) 1 25544U 98067A 24108.06679608 .00019473 00000-0 34469-3 0 9990 2 25544 51.6384 258.4693 0004986 70.1481 42.8477 15.50291806449066 CXO 1 25867U 99040B 24109.68742308 .00000930 00000-0 00000+0 0 9995 2 25867 39.8987 159.5880 8946259 292.2469 359.9679 0.37811468 25493 ...Continue Reading

[TLELIST] Current TLEs

April 16th 2024 PDT

HST 1 20580U 90037B 24106.89656719 .00008963 00000-0 43514-3 0 9994 2 20580 28.4693 42.1843 0002593 76.9923 283.0959 15.16725948667560 ISS (ZARYA) 1 25544U 98067A 24107.35220508 .00018399 00000-0 32655-3 0 9993 2 25544 51.6391 262.0127 0004622 66.1655 16.0574 15.50259838448959 CXO 1 25867U 99040B 24109.68742308 .00000930 00000-0 00000+0 0 9995 2 25867 39.8987 159.5880 8946259 292.2469 359.9679 0.37811468 25493 ...Continue Reading

[TLELIST] Current TLEs

April 16th 2024 PDT

HST 1 20580U 90037B 24106.89656719 .00008963 00000-0 43514-3 0 9994 2 20580 28.4693 42.1843 0002593 76.9923 283.0959 15.16725948667560 ISS (ZARYA) 1 25544U 98067A 24107.35220508 .00018399 00000-0 32655-3 0 9993 2 25544 51.6391 262.0127 0004622 66.1655 16.0574 15.50259838448959 CXO 1 25867U 99040B 24109.68742308 .00000930 00000-0 00000+0 0 9995 2 25867 39.8987 159.5880 8946259 292.2469 359.9679 0.37811468 25493 ...Continue Reading

[TLELIST] Current TLEs

April 16th 2024 PDT

HST 1 20580U 90037B 24106.89656719 .00008963 00000-0 43514-3 0 9994 2 20580 28.4693 42.1843 0002593 76.9923 283.0959 15.16725948667560 ISS (ZARYA) 1 25544U 98067A 24107.35220508 .00018399 00000-0 32655-3 0 9993 2 25544 51.6391 262.0127 0004622 66.1655 16.0574 15.50259838448959 CXO 1 25867U 99040B 24109.68742308 .00000930 00000-0 00000+0 0 9995 2 25867 39.8987 159.5880 8946259 292.2469 359.9679 0.37811468 25493 ...Continue Reading

[TLELIST] Current TLEs

April 15th 2024 PDT

HST 1 20580U 90037B 24105.90955786 .00008176 00000-0 39631-3 0 9992 2 20580 28.4691 48.7882 0002667 65.3661 294.7209 15.16710571667413 ISS (ZARYA) 1 25544U 98067A 24106.11269851 .00018641 00000-0 33130-3 0 9999 2 25544 51.6384 268.1571 0004667 67.4021 292.7461 15.50210893448766 CXO 1 25867U 99040B 24107.04238756 .00000910 00000-0 00000-0 0 9999 2 25867 39.8445 159.8670 8948994 292.0276 359.9148 0.37809104 14330 ...Continue Reading

[TLELIST] Current TLEs

April 15th 2024 PDT

HST 1 20580U 90037B 24105.90955786 .00008176 00000-0 39631-3 0 9992 2 20580 28.4691 48.7882 0002667 65.3661 294.7209 15.16710571667413 ISS (ZARYA) 1 25544U 98067A 24106.11269851 .00018641 00000-0 33130-3 0 9999 2 25544 51.6384 268.1571 0004667 67.4021 292.7461 15.50210893448766 CXO 1 25867U 99040B 24107.04238756 .00000910 00000-0 00000-0 0 9999 2 25867 39.8445 159.8670 8948994 292.0276 359.9148 0.37809104 14330 ...Continue Reading

[TLELIST] Current TLEs

April 15th 2024 PDT

HST 1 20580U 90037B 24105.90955786 .00008176 00000-0 39631-3 0 9992 2 20580 28.4691 48.7882 0002667 65.3661 294.7209 15.16710571667413 ISS (ZARYA) 1 25544U 98067A 24106.11269851 .00018641 00000-0 33130-3 0 9999 2 25544 51.6384 268.1571 0004667 67.4021 292.7461 15.50210893448766 CXO 1 25867U 99040B 24107.04238756 .00000910 00000-0 00000-0 0 9999 2 25867 39.8445 159.8670 8948994 292.0276 359.9148 0.37809104 14330 ...Continue Reading

[TLELIST] Current TLEs

April 14th 2024 PDT

HST 1 20580U 90037B 24104.26451997 .00005977 00000-0 28741-3 0 9991 2 20580 28.4692 59.7911 0002646 48.1306 311.9512 15.16684964667168 ISS (ZARYA) 1 25544U 98067A 24104.97805485 .00016120 00000-0 28809-3 0 9997 2 25544 51.6383 273.7776 0004898 65.3145 78.5626 15.50167442448588 CXO 1 25867U 99040B 24107.04238756 .00000910 00000-0 00000-0 0 9999 2 25867 39.8445 159.8670 8948994 292.0276 359.9148 0.37809104 14330 ...Continue Reading
  • This mailing list is a public mailing list - anyone may join or leave, at any time.
  • This mailing list is announce-only.

International Space Station (ISS) / Hubble Space Telescope (HST) / Chandra X-Ray Observatory Orbital Data via EMAIL

Privacy Policy:

Private list